N3WGC-14 Weather Reports


Display with metric or nautical units.
time (UTC)temp
F
wind
direction
speed
MPH
gust
MPH
rain 1hr
in
rain 24hr
in
rain mn
in
humidity
%
barometer
mb
20260504214723 75 99 2.0 7.0 0.00 0.00 0.00 44 1010.3
20260504214223 75 125 2.0 6.0 0.00 0.00 0.00 43 1010.2
20260504213723 75 259 2.0 6.0 0.00 0.00 0.00 42 1010.3
20260504213223 75 146 2.0 7.0 0.00 0.00 0.00 43 1010.3
20260504212722 75 93 1.0 3.0 0.00 0.00 0.00 43 1010.3
20260504212222 75 89 1.0 5.0 0.00 0.00 0.00 44 1010.3
20260504211722 75 91 3.0 3.0 0.00 0.00 0.00 43 1010.4
20260504211222 75 105 2.0 5.0 0.00 0.00 0.00 44 1010.4
20260504210722 75 226 2.0 5.0 0.00 0.00 0.00 43 1010.5
20260504210222 75 122 2.0 5.0 0.00 0.00 0.00 43 1010.5
20260504205722 75 276 2.0 3.0 0.00 0.00 0.00 42 1010.5
20260504205221 75 90 1.0 3.0 0.00 0.00 0.00 43 1010.5
20260504204721 75 213 2.0 9.0 0.00 0.00 0.00 43 1010.5
20260504204221 75 250 2.0 5.0 0.00 0.00 0.00 42 1010.6
20260504203721 75 108 3.0 5.0 0.00 0.00 0.00 42 1010.6
20260504203221 75 143 2.0 6.0 0.00 0.00 0.00 42 1010.7
20260504202721 75 101 3.0 5.0 0.00 0.00 0.00 41 1010.8
20260504202220 74 103 3.0 5.0 0.00 0.00 0.00 42 1011.0
20260504201720 74 144 3.0 8.0 0.00 0.00 0.00 42 1011.0
20260504201220 74 103 3.0 3.0 0.00 0.00 0.00 42 1011.1
20260504200720 74 153 2.0 5.0 0.00 0.00 0.00 41 1011.1
20260504200220 74 176 1.0 7.0 0.00 0.00 0.00 42 1011.2
20260504195720 74 161 2.0 3.0 0.00 0.00 0.00 43 1011.2
20260504195220 74 198 1.0 3.0 0.00 0.00 0.00 42 1011.3
20260504194719 74 338 2.0 5.0 0.00 0.00 0.00 43 1011.3
20260504194219 74 113 2.0 3.0 0.00 0.00 0.00 42 1011.4
20260504193719 74 180 2.0 3.0 0.00 0.00 0.00 43 1011.5
20260504193219 74 214 2.0 5.0 0.00 0.00 0.00 41 1011.5
20260504192719 74 138 2.0 3.0 0.00 0.00 0.00 43 1011.6
20260504192219 74 245 3.0 7.0 0.00 0.00 0.00 42 1011.6
20260504191719 74 92 1.0 3.0 0.00 0.00 0.00 45 1011.7
20260504191218 73 184 2.0 3.0 0.00 0.00 0.00 43 1011.8
20260504190718 73 256 2.0 5.0 0.00 0.00 0.00 43 1011.9
20260504190218 73 163 2.0 10.0 0.00 0.00 0.00 45 1012.0
20260504185718 73 347 1.0 2.0 0.00 0.00 0.00 45 1012.1
20260504185218 72 91 2.0 5.0 0.00 0.00 0.00 44 1012.2
20260504184718 72 156 3.0 7.0 0.00 0.00 0.00 44 1012.2
20260504184217 73 95 1.0 8.0 0.00 0.00 0.00 46 1012.3
20260504183717 72 241 5.0 8.0 0.00 0.00 0.00 43 1012.3
20260504183217 72 253 2.0 5.0 0.00 0.00 0.00 42 1012.3
20260504182717 72 106 2.0 3.0 0.00 0.00 0.00 42 1012.4
20260504182217 72 155 2.0 7.0 0.00 0.00 0.00 42 1012.4
20260504181717 72 93 2.0 3.0 0.00 0.00 0.00 42 1012.6
20260504181217 72 252 1.0 3.0 0.00 0.00 0.00 43 1012.7
20260504180716 71 254 1.0 3.0 0.00 0.00 0.00 42 1012.7
20260504180216 72 226 3.0 8.0 0.00 0.00 0.00 40 1012.8
20260504175716 71 203 2.0 5.0 0.00 0.00 0.00 41 1012.7
20260504175216 71 98 5.0 6.0 0.00 0.00 0.00 42 1012.8
20260504174716 71 249 6.0 10.0 0.00 0.00 0.00 40 1012.9
20260504174216 70 244 2.0 3.0 0.00 0.00 0.00 39 1013.0
20260504173645 70 224 1.0 3.0 0.00 0.00 0.00 43 1012.9
20260504173145 70 236 2.0 3.0 0.00 0.00 0.00 44 1013.1
20260504172645 70 261 3.0 8.0 0.00 0.00 0.00 48 1013.0
20260504172145 70 268 3.0 6.0 0.00 0.00 0.00 46 1013.2
20260504171645 70 129 1.0 3.0 0.00 0.00 0.00 47 1013.2
20260504171145 70 249 3.0 7.0 0.00 0.00 0.00 47 1013.2
20260504170645 70 257 5.0 8.0 0.00 0.00 0.00 44 1013.2
20260504170144 70 259 2.0 6.0 0.00 0.00 0.00 46 1013.2
20260504160143 66 180 1.0 2.0 0.00 0.00 0.00 49 1014.0
20260504151141 64 85 1.0 2.0 0.00 0.00 0.00 61 1014.4
20260504150641 63 261 2.0 3.0 0.00 0.00 0.00 59 1014.5
20260504150141 64 91 1.0 1.0 0.00 0.00 0.00 59 1014.5
20260504141139 61 264 2.0 3.0 0.00 0.00 0.00 63 1014.8
20260504140639 61 260 2.0 5.0 0.00 0.00 0.00 61 1014.9
20260504140139 61 265 2.0 8.0 0.00 0.00 0.00 61 1014.9
20260504130637 60 226 5.0 3.0 0.00 0.00 0.00 61 1015.0
20260504130137 60 171 1.0 2.0 0.00 0.00 0.00 62 1015.1
20260504120135 58 86 0.0 1.0 0.00 0.00 0.00 65 1015.5
20260504110634 56 254 1.0 1.0 0.00 0.00 0.00 69 1015.8
20260504110134 56 114 1.0 1.0 0.00 0.00 0.00 69 1015.7
20260504100132 56 248 2.0 3.0 0.00 0.00 0.00 72 1015.5
20260504090130 56 238 2.0 3.0 0.00 0.00 0.00 76 1015.7
20260504081629 55 272 0.0 1.0 0.00 0.00 0.00 79 1015.7
20260504081128 55 215 1.0 2.0 0.00 0.00 0.00 78 1015.7
20260504080628 55 228 0.0 0.0 0.00 0.00 0.00 77 1015.8
20260504080128 55 219 2.0 3.0 0.00 0.00 0.00 77 1015.8
20260504070126 55 244 3.0 5.0 0.00 0.00 0.00 73 1015.9
20260504060125 54 30 0.0 0.0 0.00 0.00 0.00 72 1015.9
20260504050623 54 53 0.0 1.0 0.00 0.00 0.00 72 1015.7
20260504050123 54 53 0.0 1.0 0.00 0.00 0.00 71 1015.8
20260504045623 54 224 0.0 1.0 0.00 0.00 0.00 71 1015.9
20260504045123 54 224 0.0 0.0 0.00 0.00 0.00 72 1016.0
20260504044622 54 274 2.0 3.0 0.00 0.00 0.00 72 1016.0
20260504044122 53 8 0.0 2.0 0.00 0.00 0.00 72 1015.9
20260504043622 52 252 0.0 3.0 0.00 0.00 0.00 75 1016.0
20260504043122 52 224 0.0 1.0 0.00 0.00 0.00 77 1016.0
20260504042622 52 225 0.0 1.0 0.00 0.00 0.00 78 1015.9
20260504042122 52 323 0.0 0.0 0.00 0.00 0.00 78 1015.8
20260504041621 52 323 0.0 1.0 0.00 0.00 0.00 77 1015.7
20260504041121 51 323 0.0 0.0 0.00 0.00 0.00 77 1015.7
20260504040621 51 97 0.0 1.0 0.00 0.00 0.00 77 1015.8
20260504040121 51 97 0.0 1.0 0.00 0.00 0.00 78 1015.7
20260504035621 50 97 0.0 1.0 0.00 0.00 0.00 80 1015.6
20260504035121 49 97 0.0 0.0 0.00 0.00 0.00 81 1015.6
20260504034620 50 82 0.0 1.0 0.00 0.00 0.00 79 1015.5
20260504034120 49 82 1.0 2.0 0.00 0.00 0.00 81 1015.5
20260504033620 49 82 0.0 0.0 0.00 0.00 0.00 82 1015.5
20260504033120 48 195 0.0 0.0 0.00 0.00 0.00 83 1015.4
20260504032620 48 197 0.0 0.0 0.00 0.00 0.00 83 1015.4
20260504032120 48 215 0.0 0.0 0.00 0.00 0.00 84 1015.3
20260504031620 48 215 0.0 1.0 0.00 0.00 0.00 83 1015.3
20260504031119 47 215 0.0 0.0 0.00 0.00 0.00 84 1015.3
20260504030619 47 259 0.0 1.0 0.00 0.00 0.00 82 1015.3
20260504030119 47 259 0.0 1.0 0.00 0.00 0.00 82 1015.3
20260504025619 47 259 0.0 1.0 0.00 0.00 0.00 82 1015.3
20260504025119 47 259 0.0 1.0 0.00 0.00 0.00 82 1015.3
20260504024619 47 259 0.0 0.0 0.00 0.00 0.00 81 1015.3
20260504024119 47 259 0.0 0.0 0.00 0.00 0.00 79 1015.3
20260504023548 47 259 0.0 0.0 0.00 0.00 0.00 78 1015.2
20260504023048 47 259 0.0 0.0 0.00 0.00 0.00 77 1015.3
20260504022548 48 259 0.0 0.0 0.00 0.00 0.00 76 1015.3
20260504022048 48 259 0.0 1.0 0.00 0.00 0.00 77 1015.2
20260504021548 48 259 0.0 1.0 0.00 0.00 0.00 76 1015.3
20260504021048 48 259 1.0 2.0 0.00 0.00 0.00 75 1015.2
20260504020547 48 259 0.0 1.0 0.00 0.00 0.00 75 1015.2
20260504020047 48 259 0.0 0.0 0.00 0.00 0.00 75 1015.2
20260504015547 49 259 0.0 0.0 0.00 0.00 0.00 77 1015.2
20260504015047 49 259 0.0 1.0 0.00 0.00 0.00 75 1015.1
20260504014547 49 259 1.0 1.0 0.00 0.00 0.00 75 1015.1
20260504014047 49 259 0.0 1.0 0.00 0.00 0.00 75 1015.1
20260504013547 50 259 0.0 1.0 0.00 0.00 0.00 75 1015.1
20260504013046 50 259 0.0 1.0 0.00 0.00 0.00 74 1015.0
20260504012546 51 259 1.0 1.0 0.00 0.00 0.00 74 1015.0
20260504012046 51 259 0.0 1.0 0.00 0.00 0.00 72 1015.0
20260504011546 52 259 0.0 1.0 0.00 0.00 0.00 70 1014.9
20260504011046 53 259 0.0 0.0 0.00 0.00 0.00 68 1014.9
20260504010546 54 259 0.0 1.0 0.00 0.00 0.00 66 1014.9
20260504010045 55 259 1.0 1.0 0.00 0.00 0.00 64 1014.9
20260504005545 56 259 0.0 3.0 0.00 0.00 0.00 63 1014.8
20260504005045 57 262 0.0 1.0 0.00 0.00 0.00 64 1014.7
20260504004545 57 264 0.0 0.0 0.00 0.00 0.00 64 1014.7
20260504004045 57 257 0.0 1.0 0.00 0.00 0.00 61 1014.6
20260504003545 57 257 1.0 2.0 0.00 0.00 0.00 60 1014.6
20260504003045 57 259 0.0 1.0 0.00 0.00 0.00 58 1014.6
20260504002544 58 260 0.0 0.0 0.00 0.00 0.00 57 1014.5
20260504002044 58 265 0.0 1.0 0.00 0.00 0.00 56 1014.4
20260504001544 58 270 0.0 0.0 0.00 0.00 0.00 56 1014.4
20260504001044 59 270 0.0 1.0 0.00 0.00 0.00 56 1014.3
20260504000544 59 271 2.0 2.0 0.00 0.00 0.00 56 1014.3
20260504000044 59 259 2.0 3.0 0.00 0.00 0.00 54 1014.3
20260503235543 59 261 1.0 2.0 0.00 0.00 0.00 51 1014.2
20260503235043 60 261 1.0 2.0 0.00 0.00 0.00 49 1014.1
20260503234543 60 270 1.0 2.0 0.00 0.00 0.00 48 1014.1
20260503234043 61 270 1.0 2.0 0.00 0.00 0.00 47 1014.0
20260503233513 61 305 2.0 3.0 0.00 0.00 0.00 48 1013.9
20260503233013 61 267 5.0 7.0 0.00 0.00 0.00 47 1013.9
20260503232513 61 265 1.0 3.0 0.00 0.00 0.00 45 1013.9
20260503232012 62 268 2.0 3.0 0.00 0.00 0.00 45 1013.9
20260503231512 62 269 3.0 5.0 0.00 0.00 0.00 42 1013.9
20260503231012 62 269 3.0 6.0 0.00 0.00 0.00 43 1014.0
20260503230512 62 279 5.0 5.0 0.00 0.00 0.00 44 1013.9
20260503230012 62 294 5.0 9.0 0.00 0.00 0.00 43 1013.9
20260503225512 62 284 3.0 3.0 0.00 0.00 0.00 45 1014.0
20260503225012 62 273 3.0 3.0 0.00 0.00 0.00 44 1014.0
20260503224511 62 269 3.0 6.0 0.00 0.00 0.00 42 1014.0
20260503224011 62 269 5.0 7.0 0.00 0.00 0.00 42 1014.0
20260503223511 62 281 5.0 3.0 0.00 0.00 0.00 43 1013.9
20260503223011 62 264 3.0 7.0 0.00 0.00 0.00 41 1013.9
20260503222511 62 276 3.0 3.0 0.00 0.00 0.00 42 1013.9
20260503222011 62 272 5.0 9.0 0.00 0.00 0.00 42 1014.0
20260503221510 62 278 5.0 7.0 0.00 0.00 0.00 42 1014.1
20260503221010 62 269 5.0 6.0 0.00 0.00 0.00 43 1014.1
20260503220510 62 260 3.0 8.0 0.00 0.00 0.00 42 1014.1
20260503220010 62 285 5.0 7.0 0.00 0.00 0.00 40 1014.2
20260503215510 62 316 3.0 6.0 0.00 0.00 0.00 40 1014.2
20260503215010 62 277 3.0 8.0 0.00 0.00 0.00 40 1014.2